JST461 YSSY-YSSY

Flight info

Callsign JST461
Flight time 0h 16m
Altitude 35000
Route BOREE
Aircraft A320/M-SDE3FGHIRWY/LB1

Departure

Time 2026-04-26 06:51
Airport Sydney Kingsford Smith International Airport (YSSY)

Arrival

Time 2026-04-26 07:07
Airport Sydney Kingsford Smith International Airport (YSSY)
Time Latitude Longitude Altitude Speed Heading
2026-04-26 06:27 -32.09442 151.93010 33517 ft 343 kts 282°
2026-04-26 06:27 -32.08844 151.90255 32834 ft 349 kts 282°
2026-04-26 06:28 -32.08250 151.87474 32367 ft 348 kts 279°
2026-04-26 06:28 -32.08155 151.84674 32010 ft 339 kts 258°
2026-04-26 06:28 -32.08664 151.81980 31593 ft 336 kts 253°
2026-04-26 06:28 -32.09272 151.79327 31202 ft 334 kts 252°
2026-04-26 06:29 -32.09886 151.76693 30833 ft 332 kts 252°
2026-04-26 06:29 -32.10496 151.74072 30488 ft 330 kts 252°
2026-04-26 06:29 -32.11101 151.71469 30114 ft 328 kts 252°
2026-04-26 06:29 -32.11700 151.68884 29717 ft 326 kts 252°
2026-04-26 06:30 -32.12296 151.66314 29321 ft 323 kts 252°
2026-04-26 06:30 -32.12890 151.63759 28929 ft 321 kts 252°
2026-04-26 06:30 -32.13471 151.61259 28549 ft 320 kts 252°
2026-04-26 06:30 -32.14058 151.58735 28167 ft 318 kts 252°
2026-04-26 06:31 -32.14643 151.56229 27782 ft 316 kts 252°
2026-04-26 06:31 -32.15239 151.53739 27396 ft 314 kts 248°
2026-04-26 06:31 -32.16245 151.51504 27038 ft 306 kts 228°
2026-04-26 06:31 -32.17815 151.49868 26647 ft 299 kts 207°
2026-04-26 06:32 -32.19722 151.48923 26231 ft 297 kts 197°
2026-04-26 06:32 -32.21674 151.48105 25837 ft 298 kts 197°
2026-04-26 06:32 -32.23621 151.47286 25487 ft 297 kts 197°
2026-04-26 06:32 -32.25564 151.46466 25141 ft 295 kts 198°
2026-04-26 06:33 -32.27494 151.45649 24806 ft 294 kts 197°
2026-04-26 06:33 -32.29418 151.44837 24469 ft 293 kts 197°
2026-04-26 06:33 -32.31331 151.44026 24144 ft 292 kts 198°
2026-04-26 06:33 -32.33239 151.43213 23824 ft 291 kts 198°
2026-04-26 06:34 -32.35138 151.42404 23459 ft 289 kts 198°
2026-04-26 06:34 -32.37026 151.41602 23080 ft 287 kts 197°
2026-04-26 06:34 -32.38904 151.40806 22708 ft 286 kts 197°
2026-04-26 06:34 -32.40767 151.40015 22355 ft 284 kts 197°
2026-04-26 06:35 -32.42618 151.39225 22017 ft 282 kts 198°
2026-04-26 06:35 -32.44454 151.38441 21682 ft 280 kts 198°
2026-04-26 06:35 -32.46279 151.37663 21348 ft 278 kts 198°
2026-04-26 06:35 -32.48092 151.36892 21022 ft 276 kts 198°
2026-04-26 06:36 -32.49899 151.36123 20710 ft 274 kts 197°
2026-04-26 06:36 -32.51687 151.35360 20394 ft 273 kts 198°
2026-04-26 06:36 -32.53466 151.34599 20079 ft 271 kts 198°
2026-04-26 06:36 -32.55213 151.33854 19774 ft 270 kts 197°
2026-04-26 06:37 -32.56974 151.33105 19459 ft 268 kts 197°
2026-04-26 06:37 -32.58726 151.32360 19142 ft 267 kts 197°
2026-04-26 06:37 -32.60476 151.31615 18831 ft 266 kts 197°
2026-04-26 06:37 -32.62233 151.30866 18333 ft 273 kts 198°
2026-04-26 06:38 -32.64055 151.30088 17659 ft 284 kts 198°
2026-04-26 06:38 -32.65954 151.29275 16971 ft 295 kts 198°
2026-04-26 06:38 -32.67920 151.28434 16312 ft 305 kts 198°
2026-04-26 06:38 -32.69928 151.27575 15858 ft 307 kts 198°
2026-04-26 06:39 -32.71934 151.26716 15495 ft 306 kts 198°
2026-04-26 06:39 -32.73931 151.25859 15145 ft 304 kts 198°
2026-04-26 06:39 -32.75908 151.25010 14795 ft 302 kts 199°
2026-04-26 06:39 -32.77884 151.24161 14459 ft 300 kts 199°
2026-04-26 06:40 -32.79844 151.23320 14127 ft 299 kts 199°
2026-04-26 06:40 -32.81790 151.22486 13747 ft 297 kts 199°
2026-04-26 06:40 -32.83729 151.21651 13380 ft 296 kts 199°
2026-04-26 06:40 -32.85660 151.20820 13011 ft 294 kts 198°
2026-04-26 06:41 -32.87577 151.19998 12648 ft 292 kts 198°
2026-04-26 06:41 -32.89488 151.19179 12287 ft 291 kts 198°
2026-04-26 06:41 -32.91387 151.18360 11936 ft 290 kts 198°
2026-04-26 06:41 -32.92640 151.17818 11695 ft 289 kts 198°
2026-04-26 06:42 -32.95163 151.16728 11218 ft 287 kts 198°
2026-04-26 06:42 -32.96404 151.16192 10990 ft 287 kts 198°
2026-04-26 06:42 -32.98279 151.15385 10639 ft 285 kts 198°
2026-04-26 06:42 -33.00142 151.14588 10315 ft 284 kts 198°
2026-04-26 06:43 -33.01995 151.13791 9966 ft 283 kts 198°
2026-04-26 06:43 -33.03840 151.12994 9603 ft 281 kts 198°
2026-04-26 06:43 -33.05676 151.12203 9254 ft 280 kts 198°
2026-04-26 06:43 -33.07491 151.11420 9025 ft 276 kts 198°
2026-04-26 06:44 -33.09307 151.10618 9022 ft 279 kts 199°
2026-04-26 06:44 -33.11124 151.09805 9020 ft 279 kts 199°
2026-04-26 06:44 -33.12941 151.08995 9017 ft 279 kts 199°
2026-04-26 06:44 -33.14759 151.08192 9018 ft 279 kts 199°
2026-04-26 06:45 -33.16582 151.07394 9019 ft 279 kts 199°
2026-04-26 06:45 -33.18401 151.06601 9021 ft 279 kts 199°
2026-04-26 06:45 -33.20224 151.05812 9023 ft 279 kts 198°
2026-04-26 06:45 -33.22053 151.05050 9021 ft 278 kts 194°
2026-04-26 06:46 -33.23955 151.04670 9023 ft 277 kts 181°
2026-04-26 06:46 -33.25868 151.04752 8964 ft 275 kts 170°
2026-04-26 06:46 -33.27747 151.05131 8713 ft 273 kts 169°
2026-04-26 06:46 -33.29618 151.05506 8366 ft 272 kts 169°
2026-04-26 06:47 -33.31479 151.05871 8027 ft 270 kts 170°
2026-04-26 06:47 -33.33330 151.06228 7692 ft 269 kts 170°
2026-04-26 06:47 -33.35175 151.06580 7363 ft 267 kts 170°
2026-04-26 06:47 -33.37007 151.06929 7033 ft 266 kts 170°
2026-04-26 06:48 -33.38836 151.07277 6709 ft 265 kts 171°
2026-04-26 06:48 -33.40655 151.07625 6359 ft 264 kts 171°
2026-04-26 06:48 -33.42462 151.07969 6052 ft 262 kts 171°
2026-04-26 06:48 -33.44275 151.08303 6010 ft 264 kts 171°
2026-04-26 06:49 -33.46093 151.08629 6014 ft 264 kts 171°
2026-04-26 06:49 -33.47912 151.08959 6011 ft 265 kts 171°
2026-04-26 06:49 -33.49730 151.09295 6010 ft 264 kts 171°
2026-04-26 06:49 -33.51549 151.09636 6010 ft 264 kts 171°
2026-04-26 06:50 -33.53369 151.09982 6011 ft 265 kts 171°
2026-04-26 06:50 -33.55185 151.10332 6008 ft 265 kts 171°
2026-04-26 06:50 -33.57006 151.10682 6009 ft 265 kts 171°
2026-04-26 06:50 -33.58825 151.11029 6010 ft 265 kts 171°
2026-04-26 06:51 -33.60644 151.11380 6012 ft 265 kts 171°
2026-04-26 06:51 -33.64256 151.12086 6013 ft 265 kts 171°
2026-04-26 06:51 -33.66076 151.12446 6015 ft 265 kts 171°
2026-04-26 06:52 -33.67890 151.12808 6020 ft 263 kts 170°
2026-04-26 06:52 -33.69652 151.13172 6019 ft 252 kts 170°
2026-04-26 06:52 -33.71393 151.13518 6017 ft 254 kts 171°
2026-04-26 06:52 -33.73142 151.13856 6016 ft 254 kts 171°
2026-04-26 06:53 -33.74894 151.14193 6014 ft 254 kts 171°
2026-04-26 06:53 -33.76641 151.14530 6016 ft 254 kts 171°
2026-04-26 06:53 -33.78387 151.14866 6013 ft 254 kts 172°
2026-04-26 06:53 -33.80151 151.15019 6014 ft 254 kts 173°
2026-04-26 06:54 -33.81835 151.15656 6014 ft 255 kts 156°
2026-04-26 06:54 -33.83431 151.16572 6014 ft 255 kts 154°
2026-04-26 06:54 -33.85016 151.17520 6011 ft 255 kts 153°
2026-04-26 06:54 -33.86601 151.18473 6011 ft 255 kts 153°
2026-04-26 06:55 -33.88186 151.19426 6013 ft 255 kts 153°
2026-04-26 06:55 -33.89774 151.20379 6013 ft 255 kts 153°
2026-04-26 06:55 -33.91359 151.21330 6012 ft 255 kts 153°
2026-04-26 06:55 -33.92944 151.22280 6011 ft 255 kts 153°
2026-04-26 06:56 -33.94532 151.23232 6010 ft 255 kts 153°
2026-04-26 06:56 -33.96117 151.24181 6011 ft 255 kts 153°
2026-04-26 06:56 -33.97704 151.25132 5983 ft 255 kts 153°
2026-04-26 06:56 -33.99285 151.26088 5798 ft 254 kts 153°
2026-04-26 06:57 -34.00857 151.27049 5472 ft 253 kts 153°
2026-04-26 06:57 -34.02405 151.27996 5138 ft 252 kts 153°
2026-04-26 06:57 -34.03969 151.28953 4791 ft 252 kts 153°
2026-04-26 06:57 -34.05534 151.29907 4436 ft 252 kts 153°
2026-04-26 06:58 -34.07102 151.30855 4070 ft 252 kts 153°
2026-04-26 06:58 -34.08671 151.31790 3707 ft 252 kts 154°
2026-04-26 06:58 -34.10334 151.32448 3360 ft 252 kts 166°
2026-04-26 06:58 -34.12050 151.32895 3039 ft 251 kts 167°
2026-04-26 06:59 -34.13718 151.33291 3010 ft 238 kts 168°
2026-04-26 06:59 -34.15367 151.33668 3017 ft 242 kts 169°
2026-04-26 06:59 -34.17025 151.34045 3016 ft 244 kts 169°
2026-04-26 06:59 -34.18705 151.34337 3014 ft 245 kts 181°
2026-04-26 07:00 -34.20306 151.33765 3012 ft 243 kts 216°
2026-04-26 07:00 -34.21393 151.32272 3017 ft 235 kts 249°
2026-04-26 07:00 -34.21622 151.30369 3021 ft 228 kts 283°
2026-04-26 07:00 -34.20955 151.28707 3020 ft 221 kts 316°
2026-04-26 07:01 -34.19813 151.27466 3013 ft 220 kts 323°
2026-04-26 07:01 -34.18606 151.26313 3016 ft 219 kts 323°
2026-04-26 07:01 -34.17401 151.25175 3015 ft 220 kts 324°
2026-04-26 07:01 -34.16197 151.24032 3017 ft 222 kts 324°
2026-04-26 07:02 -34.14951 151.22957 3008 ft 220 kts 338°
2026-04-26 07:02 -34.13482 151.22509 3017 ft 218 kts 349°
2026-04-26 07:02 -34.11996 151.22134 2987 ft 216 kts 348°
2026-04-26 07:02 -34.10557 151.21750 2797 ft 208 kts 348°
2026-04-26 07:03 -34.09165 151.21382 2551 ft 202 kts 349°
2026-04-26 07:03 -34.07809 151.21028 2290 ft 196 kts 349°
2026-04-26 07:03 -34.06491 151.20684 2036 ft 191 kts 350°
2026-04-26 07:03 -34.05225 151.20329 1858 ft 182 kts 348°
2026-04-26 07:04 -34.03998 151.19950 1490 ft 184 kts 349°
2026-04-26 07:04 -34.02786 151.19625 1313 ft 168 kts 353°
2026-04-26 07:04 -34.01663 151.19406 1060 ft 161 kts 353°
2026-04-26 07:04 -34.00628 151.19147 963 ft 140 kts 357°
2026-04-26 07:05 -33.99656 151.18886 685 ft 144 kts 356°
2026-04-26 07:05 -33.98690 151.18648 539 ft 141 kts 358°
2026-04-26 07:05 -33.97759 151.18422 313 ft 132 kts 356°
2026-04-26 07:05 -33.96878 151.18183 160 ft 128 kts 355°
2026-04-26 07:06 -33.96024 151.17988 61 ft 119 kts 353°
2026-04-26 07:06 -33.95295 151.17774 30 ft 85 kts 347°
2026-04-26 07:06 -33.94811 151.17648 29 ft 64 kts 349°
2026-04-26 07:06 -33.94413 151.17540 30 ft 54 kts 349°
2026-04-26 07:07 -33.94146 151.17476 28 ft 29 kts 347°
2026-04-26 07:07 -33.93959 151.17428 27 ft 17 kts 347°
2026-04-26 07:07 -33.93909 151.17479 27 ft 15 kts 74°
2026-04-26 07:07 -33.93880 151.17608 29 ft 17 kts 75°
2026-04-26 07:08 -33.93839 151.17742 30 ft 17 kts 44°
2026-04-26 07:08 -33.93733 151.17785 30 ft 17 kts 13°